Погода в Октябрьском

Россия / Волгоградская область     49°38′15″N   44°33′23″E
темп.,
°C
ветер,
м/с
пор.,
м/с
влажн.,
%
обл.,
%
осадки,
мм/ч
давл.,
гПа
погр.,
м
15 июня, вт
вт1500:00+17всв2294100 1.1 101237
03:00+17св2493100 1.1 1012111
06:00+18ссв4791100 0.1 1011332
09:00+21с547799 0.3 1010526
12:00+24ссв43637 0.7 10091023
15:00+25сз335678 0.9 10081518
18:00+24зсз356646 0.0 1008453
21:00+19сз35830 0.0 100883
16 июня, ср
ср1600:00+17з348814 0.0 100872
03:00+17з2391100 0.0 100941
06:00+19зюз358431 0.0 1010195
09:00+24з56620 0.0 1011872
12:00+27з56520 0.0 10111608
15:00+28з56460 0.0 10112028
18:00+27сз46570 0.0 1011446
21:00+22ссз33720 0.0 101235
17 июня, чт
чт1700:00+20с34830 0.0 101253
03:00+18с34905 0.0 101368
06:00+20с36825 0.0 1013197
09:00+25ссв56655 0.0 1013741
12:00+28св56530 0.0 10141545
15:00+28св765148 0.0 10151944
18:00+26св68620 0.0 10171063
21:00+21св714650 0.0 1018487
18 июня, пт
пт1800:00+18св614640 0.0 1019496
03:00+16св514670 0.0 1021434
06:00+17св613720 0.0 1022512
09:00+21всв810500 0.0 10221077
12:00+24всв78430 0.0 10231674
15:00+24всв78410 0.0 10231890
18:00+23всв69500 0.0 1024804
21:00+18всв613570 0.0 1026390
19 июня, сб
сб1900:00+15св411690 0.0 1026210
03:00+13всв411770 0.0 1027209
06:00+15всв510730 0.0 1028329
09:00+20в68550 0.0 1028924
12:00+24в56430 0.0 10271439
15:00+25в56390 0.0 10261631
18:00+24всв47470 0.0 1025445
21:00+18всв46640 0.0 102588